Location: Red Bud (historical)
(37.7759°N, 88.4053°W)
Time: 23:22:24
(UTC+00:00)

Aureole 3 Rocket - Pass Details

Date: 29 October 2020
Orbit: 399 x 1739 km, 82.5° (Epoch: 28 November)

Event Time Altitude Azimuth Distance (km) Brightness Sun altitude
Rises 23:23:08 0° 173° (S) 2,540 6.3 -5.7°
Reaches altitude 10° 23:25:00 10° 167° (SSE) 1,769 5.4 -6.1°
Maximum altitude 23:28:43 52° 91° (E) 794 3.3 -6.8°
Drops below altitude 10° 23:33:48 10° 16° (NNE) 2,414 5.8 -7.8°
Sets 23:36:42 0° 12° (NNE) 3,585 6.7 -8.3°
